Location: Capecure
(50.7208°N, 1.5967°E)
Time: 01:20:14
(UTC+00:00)

Daily predictions for brighter satellites

Satellite Brightness Start Highest point End
(mag) Time Altitude Azimuth Time Altitude Azimuth Time Altitude Azimuth
Cosmos 2297 Rocket 3.2 00:03:16 10° NNW 00:08:43 45° NE 00:14:06 10° SE
Cosmos 1782 3.1 00:06:42 10° N 00:10:18 53° ENE 00:11:51 30° SE
Cosmos 2112 Rocket 4.4 00:09:07 10° NNW 00:14:20 61° ENE 00:18:22 17° SE
SL-08 ROCKET BODY 4.4 00:11:57 26° S 00:15:32 89° E 00:21:31 10° N
BREEZE-M DEB (TANK) 3.7 00:11:52 10° WSW 00:15:58 78° SSE 00:31:53 10° E
Cosmos 1975 Rocket 4.2 00:14:30 19° SW 00:17:02 34° WNW 00:21:02 10° N
Cosmos 1818 4.2 00:12:04 10° NW 00:17:04 38° WSW 00:19:10 27° SSW
Cosmos 2058 3.0 00:18:00 33° SSE 00:19:31 58° E 00:23:25 10° NNE
Cosmos 44 3.0 00:19:22 32° SSW 00:21:16 69° SE 00:25:40 10° NE
Cosmos 2228 4.1 00:20:36 10° NNW 00:24:17 30° W 00:25:54 23° SW
Cosmos 1680 Rocket 3.5 00:24:32 10° NNW 00:29:49 89° WSW 00:33:13 23° SSE
RESURS DK-1 3.0 00:27:42 10° NNW 00:31:37 51° NE 00:34:58 13° SE
Cosmos 2098 Rocket 4.4 00:33:42 10° WNW 00:35:10 13° W 00:35:31 13° W
Cosmos 1697 Rocket 4.4 00:32:50 13° SE 00:36:05 20° E 00:40:08 10° NE
H-2A R/B 2.7 00:34:14 24° SE 00:36:16 56° ENE 00:40:00 10° N
Cosmos 1656 4.1 00:33:45 25° S 00:36:43 50° ESE 00:42:06 10° NE
Cosmos 923 Rocket 4.1 00:32:07 10° NNW 00:37:13 60° WSW 00:39:56 27° S
SeaSat 1 3.5 00:33:49 10° ESE 00:38:26 43° NE 00:43:04 10° NNW
Cosmos 2227 Rocket 3.5 00:34:49 10° NNW 00:40:09 39° NE 00:45:26 10° ESE
Cosmos 1400 Rocket 3.4 00:38:36 10° NNW 00:42:14 39° W 00:43:29 30° SW
Cosmos 1356 Rocket 4.2 00:40:56 10° N 00:44:46 45° ENE 00:47:29 18° SE
BlueWalker 3 2.4 00:41:31 10° WNW 00:45:09 57° N 00:48:46 10° E
ATLAS 2AS CENTAUR R/B 4.3 00:39:03 10° NW 00:45:21 37° NNE 00:51:32 10° E
Cosmos 1602 3.8 00:46:12 33° SSE 00:47:15 48° E 00:50:24 10° NNE
Cosmos-2242 4.3 00:45:41 10° N 00:49:31 33° ENE 00:53:05 11° SE
Cosmos 1937 Rocket 3.5 00:47:15 24° SSW 00:50:20 75° WNW 00:55:29 10° NNE
ISS -3.7 00:49:48 10° W 00:53:09 77° N 00:56:32 10° E
H-2A R/B 4.4 00:52:39 10° ENE 00:54:53 14° E 00:57:09 10° ESE
Cosmos 2315 Rocket 4.1 00:50:34 10° NNW 00:56:56 74° W 01:01:14 22° S
Cosmos 858 Rocket 4.4 00:54:37 25° SSW 00:57:40 85° WNW 01:02:53 10° NNE
Cosmos 1441 Rocket 4.1 00:58:03 22° SE 00:59:42 35° E 01:02:55 10° NNE
Landsat 4 2.8 01:03:33 40° SSE 01:04:25 88° E 01:07:16 10° NNW
Cosmos 1933 3.1 01:01:10 10° NNW 01:05:04 83° W 01:07:01 28° S
DNEPR-1 R/B 4.3 01:07:10 10° WNW 01:10:56 32° WSW 01:12:14 26° SSW
Meteor 2-3 Rocket 4.0 01:10:11 21° S 01:14:12 69° E 01:19:59 10° NNE
CZ-2C R/B 2.9 01:11:02 23° S 01:14:26 57° W 01:19:56 10° NNW
Cosmos 1606 Rocket 4.4 01:17:15 10° NNW 01:21:11 35° W 01:23:12 23° SW
Cosmos 1048 Rocket 4.1 01:16:15 10° NNW 01:21:39 88° ENE 01:26:52 11° SSE
Cosmos 2058 Rocket 3.0 01:18:00 10° N 01:22:27 86° WSW 01:25:27 20° S
Cosmos 1315 Rocket 2.6 01:18:52 10° NNW 01:22:41 88° E 01:25:07 21° SSE
Cosmos 1655 Rocket 4.2 01:20:19 21° SSW 01:24:47 69° WNW 01:31:12 10° N
IDEFIX/ARIANE 42P 3.0 01:23:14 10° NNE 01:28:22 56° E 01:32:15 17° S
Lacrosse 5 rocket 3.0 01:30:45 10° WNW 01:34:23 35° N 01:38:02 10° ENE
CZ-2C R/B 3.3 01:31:10 10° N 01:35:55 51° WNW 01:39:09 19° SW
Cosmos 2219 4.3 01:33:12 10° NNW 01:38:43 46° NE 01:44:08 10° SE
Meteor 1-26 Rocket 4.1 01:34:14 10° NNW 01:39:41 88° WSW 01:44:35 13° S
Cosmos 2360 4.2 01:36:32 19° SSW 01:40:41 84° WNW 01:46:26 10° NNE
CZ-4C R/B 3.1 01:37:32 10° WSW 01:42:01 42° NNW 01:47:46 10° NE
ADEOS II 3.9 01:40:03 10° NE 01:44:19 25° E 01:48:34 10° SSE
Cosmos 1862 4.3 01:42:22 18° WSW 01:44:22 30° WNW 01:47:41 10° N
Cosmos 1867 4.0 01:40:43 14° WSW 01:45:24 60° NW 01:50:51 10° NE
Cosmos 2263 Rocket 2.8 01:40:29 10° NNW 01:46:05 58° NE 01:51:37 10° SE
SL-16 R/B 4.4 01:42:21 10° ESE 01:47:42 31° ENE 01:53:04 10° N
Gbstr 26 Del rocket 4.0 01:44:27 10° WNW 01:50:39 75° SSW 01:58:03 10° ESE
Cosmos 2297 Rocket 2.8 01:47:30 10° NW 01:52:41 38° WSW 01:56:44 16° S
CZ-2D R/B 3.1 01:50:54 10° NNE 01:55:52 40° E 02:00:45 10° SSE
SL-19 R/B 4.5 01:50:09 10° NNE 01:55:55 78° WNW 02:00:57 16° SSW
MOZ.5/SAFIR/RUBIN 5/SL-8 3.7 01:56:34 13° S 02:00:42 68° WSW 02:05:22 10° NNW
BREEZE-M DEB (TANK) 2.1 01:59:26 10° W 02:01:54 33° SSW 02:03:56 10° SE
Meteor 2-6 Rocket 4.3 02:00:05 10° N 02:05:47 83° ENE 02:11:36 10° SSE
RESURS DK-1 3.8 02:05:50 10° WNW 02:08:46 20° WSW 02:10:16 16° SW
Cosmos 1758 Rocket 3.5 02:05:25 15° S 02:09:00 88° ESE 02:13:27 10° N
Cosmos 1602 Rocket 3.9 02:05:12 12° S 02:09:06 63° E 02:13:23 10° NNE
Cosmos 1980 Rocket 2.9 02:05:14 12° S 02:10:13 47° ESE 02:15:34 10° NE
Resurs 1-4 Rocket 2.6 02:04:59 10° NNE 02:10:13 57° E 02:15:26 10° S
Tiangong 0.2 02:10:34 12° S 02:10:53 12° SSE 02:12:16 10° SE
H-2A R/B 4.2 02:09:35 12° WSW 02:10:58 14° W 02:13:06 10° NW
Nadezhda 1 Rocket 4.0 02:05:56 10° NNW 02:12:15 79° W 02:18:25 10° S
ATLAS 5 CENTAUR R/B 4.4 02:09:21 10° NNW 02:12:27 21° NNE 02:16:02 10° ENE
Cosmos 1626 Rocket 3.6 02:12:06 16° SSW 02:15:32 65° WNW 02:19:54 10° N
SeaSat 1 3.0 02:11:34 11° S 02:15:53 37° WSW 02:20:25 10° NW
Cosmos 1745 Rocket 4.1 02:12:26 11° S 02:18:39 86° E 02:25:04 10° N
H-2A R/B 4.4 02:15:44 10° NE 02:19:05 18° E 02:22:23 10° SE
Cosmos 1697 Rocket 2.8 02:14:32 14° SW 02:19:23 79° WNW 02:25:06 10° NNE
Cosmos 614 Rocket 3.9 02:17:12 10° NNW 02:22:16 76° WSW 02:27:18 10° SSE
FENGYUN 3A 3.7 02:17:23 10° NNE 02:22:49 86° WNW 02:27:59 11° SSW
BlueWalker 3 1.7 02:19:19 10° WNW 02:22:58 72° SSW 02:26:36 10° ESE
Cosmos 2227 Rocket 2.5 02:18:54 10° NW 02:24:18 46° WSW 02:29:40 10° S
MSX 4.1 02:20:30 10° N 02:26:08 60° WNW 02:31:23 12° SW
Cosmos-2242 4.1 02:22:58 10° NNW 02:26:30 27° W 02:29:26 13° SW
ISS -3.5 02:26:34 10° W 02:29:50 47° SSW 02:33:04 10° SE
Okean 1 3.3 02:26:59 10° NNW 02:30:39 56° W 02:34:17 10° S
H-2A R/B 2.0 02:26:37 10° N 02:30:46 72° WNW 02:34:41 12° SSW
Cosmos 1709 Rocket 4.2 02:26:36 10° S 02:32:58 82° E 02:39:21 10° NNE
ATLAS 2AS CENTAUR R/B 2.7 02:30:11 10° NW 02:37:01 89° SW 02:43:44 10° SE
USA 290 2.3 02:34:38 10° NNW 02:37:58 87° ENE 02:41:14 10° SSE
Okean 1-7 Rocket 3.6 02:35:15 10° S 02:39:42 84° W 02:44:13 10° N
SAR-Lupe-3 4.2 02:36:58 10° SSE 02:39:52 78° ENE 02:42:49 10° NNW
NPP 4.2 02:37:16 10° N 02:42:27 47° WNW 02:47:35 10° SW
ALOS 2.5 02:39:01 10° NNE 02:43:36 70° ESE 02:48:09 10° S
Cosmos 1844 Rocket 4.3 02:40:22 10° NNW 02:45:42 41° NE 02:50:59 10° ESE
Cosmos 2221 2.7 02:43:10 10° NNW 02:47:20 53° W 02:51:28 10° S
Cosmos 1743 3.4 02:46:53 10° SSE 02:50:06 45° E 02:53:19 10° NNE
Cosmos 1125 Rocket 3.9 02:46:25 10° SW 02:51:36 56° WNW 02:56:49 10° NNE
Cosmos 192 4.4 02:47:00 10° SSW 02:51:56 90° WNW 02:56:54 10° NNE
Cosmos 2298 Rocket 4.3 02:49:06 10° SSW 02:54:23 72° ESE 02:59:42 10° NNE
Cosmos 2151 3.0 02:52:11 10° SSW 02:56:18 66° WNW 03:00:28 10° N
Cosmos 1953 Rocket 3.9 02:58:44 10° S 03:03:04 67° E 03:07:24 10° NNE
Cosmos 2322 Rocket 4.5 03:00:49 10° SE 03:04:42 19° E 03:08:35 10° NE
Meteor 1-19 Rocket 4.2 03:00:41 10° NNW 03:06:04 67° W 03:11:32 10° S
IDEFIX/ARIANE 42P 3.9 03:03:16 10° N 03:07:32 26° WNW 03:11:47 10° WSW
Cosmos 2369 3.9 03:02:02 10° SSW 03:07:41 78° ESE 03:13:21 10° NNE
Meteor 2-4 Rocket 4.3 03:04:16 10° N 03:09:40 59° ENE 03:14:56 10° SSE
Cosmos 2333 Rocket 4.3 03:05:28 10° SSE 03:09:43 22° ESE 03:13:59 10° NE
